Theta_e
316 315 304 304 296 291 286 290 293 295 297 305 313 312 313 319 316 308 332 333 334 338 343 347 348 350 350 350 350 350 351 351 351 351 350 351 351 351 351 351 350 350 348 348 346 346 345 344 343
306 308 304 299 290 284 285 292 295 298 303 303 315 323 321 317 331 330 329 336 335 338 342 345 347 349 350 350 350 350 351 350 350 350 350 350 350 350 350 350 349 349 348 348 347 346 344 342 341
309 305 299 294 286 285 286 294 298 300 302 301 312 327 326 322 332 331 335 336 335 337 341 344 346 347 349 349 350 350 350 349 349 348 349 349 349 349 349 349 349 350 350 349 346 344 342 341 341
305 302 298 291 287 291 293 297 298 298 302 302 318 321 330 335 333 335 338 336 334 336 338 342 344 346 348 349 350 350 348 348 348 348 350 350 350 349 348 348 348 350 350 348 345 343 341 341 339
302 298 292 289 289 291 294 297 299 300 299 303 320 321 325 334 336 337 338 337 335 336 338 341 342 345 347 349 349 348 347 346 347 348 348 349 348 348 347 346 347 348 349 347 344 342 341 338 336
301 296 291 288 288 294 297 300 300 299 299 305 322 324 324 334 333 333 336 336 338 337 337 339 343 345 346 347 346 345 344 344 345 346 347 347 346 345 345 345 345 346 345 343 342 340 337 335 333
299 296 293 290 292 295 298 302 301 300 299 308 326 318 325 329 334 334 334 336 337 337 336 337 339 343 343 343 342 341 341 341 342 344 344 344 342 342 343 343 344 343 342 340 338 336 334 331 329
300 298 290 291 291 294 300 301 302 301 299 323 326 314 315 328 335 334 335 337 337 338 336 337 337 339 339 341 340 339 339 339 340 342 341 340 339 340 340 340 340 339 339 337 335 333 329 327 327
299 294 288 292 292 297 302 300 303 303 299 319 327 327 329 334 336 333 331 332 333 335 337 339 339 336 336 336 339 340 340 339 340 340 339 335 333 333 335 334 337 336 335 334 331 328 325 325 328
297 292 293 299 299 299 300 297 302 301 300 304 319 329 332 334 333 330 329 328 329 331 334 336 337 336 334 338 336 335 336 336 335 333 332 329 328 327 328 330 334 334 332 330 327 323 322 316 320
294 293 296 297 301 299 299 298 299 297 297 302 306 322 330 331 331 330 331 332 331 332 333 334 335 334 334 335 334 333 332 331 330 329 327 325 324 324 322 322 324 321 324 316 314 311 309 311 315
292 297 297 298 299 297 297 299 299 299 302 305 306 326 328 330 329 331 330 331 332 333 332 334 334 332 333 333 334 332 332 331 331 327 324 322 319 318 317 317 316 314 310 308 306 306 308 311 314
294 296 297 298 298 297 299 298 299 299 304 305 320 327 327 329 330 333 334 334 334 333 334 333 334 332 332 330 331 330 330 333 331 326 322 321 318 316 315 313 311 308 306 305 306 305 307 311 311
296 295 296 297 297 297 298 298 298 301 303 303 321 323 325 328 329 330 331 331 333 334 335 334 334 333 331 330 329 328 330 330 327 324 321 318 317 315 313 310 307 305 307 306 305 304 306 308 309
297 293 294 295 295 295 297 294 295 301 303 303 303 318 323 326 328 329 330 330 332 333 334 334 334 333 330 329 328 329 329 327 326 324 320 318 316 315 312 307 306 305 306 305 304 303 306 307 308
293 290 287 293 295 297 296 290 298 300 299 300 301 301 313 322 327 329 331 331 331 331 333 333 334 333 331 329 327 327 326 326 325 321 320 318 316 314 311 307 306 306 304 303 303 304 305 306 305
288 284 286 291 295 294 294 291 296 300 299 298 298 298 298 299 302 306 324 329 329 329 329 329 332 333 331 330 326 325 323 324 324 322 321 319 318 314 312 309 306 305 303 302 303 302 306 305 304
285 286 288 287 291 294 292 291 294 297 296 296 296 295 297 299 301 306 311 315 324 326 328 328 330 333 333 330 325 321 320 324 322 321 320 318 318 314 311 309 306 304 302 301 301 303 304 305 306
289 288 287 289 293 291 291 290 293 295 294 293 294 296 297 298 301 304 307 312 315 316 323 326 327 330 333 328 325 323 321 320 318 319 319 317 317 315 311 308 305 304 303 303 302 301 304 302 303
290 288 288 291 294 292 290 289 293 294 293 294 295 295 296 297 299 302 303 304 309 313 315 316 325 327 331 332 329 327 324 321 317 316 315 317 316 314 312 308 304 303 303 302 302 302 302 300 303
290 288 289 289 291 289 287 286 288 292 295 297 296 296 296 296 296 298 300 301 303 307 311 315 315 320 330 332 331 316 313 310 309 310 313 313 315 313 311 307 305 303 304 303 302 303 306 302 302
288 292 292 290 285 282 287 280 286 290 292 294 294 294 294 295 296 297 299 300 301 304 308 313 316 319 328 332 330 322 321 317 313 315 313 312 313 311 310 308 306 304 304 304 303 304 306 306 302
290 293 290 289 283 280 282 281 283 289 289 291 293 295 294 295 296 297 298 298 299 302 303 308 313 315 319 326 329 322 318 322 313 312 312 311 310 310 309 307 305 305 305 304 303 299 300 306 305
292 288 286 283 282 277 283 283 281 285 289 292 294 294 295 296 297 298 298 299 299 300 300 303 307 311 315 318 318 318 318 317 310 311 310 310 310 308 308 307 306 306 305 304 303 301 300 299 304
288 284 278 277 276 277 284 282 284 290 292 293 293 293 294 295 295 295 296 296 298 298 299 301 303 306 309 313 314 314 314 311 310 310 310 309 308 306 305 307 305 304 303 300 299 299 298 297 298
287 287 279 275 275 277 284 279 282 291 294 294 295 294 294 294 295 295 295 296 296 298 298 298 300 302 305 306 309 311 314 311 310 310 310 309 307 303 303 302 302 302 300 298 297 296 295 294 293
288 284 289 282 281 278 280 281 287 290 291 292 291 293 292 293 294 295 297 297 297 297 298 297 297 299 301 302 306 307 310 308 309 309 308 304 302 301 302 302 300 298 297 297 295 294 292 292 292
290 291 284 283 278 276 277 279 280 285 287 288 288 289 291 293 293 294 295 296 296 297 297 296 296 296 297 298 304 305 306 309 307 307 305 304 303 303 301 299 297 296 296 295 294 293 293 292 292
284 281 283 284 280 274 274 279 284 287 286 285 286 289 288 289 291 292 293 294 295 297 297 296 295 294 294 295 300 302 301 304 306 305 305 303 301 299 298 296 296 295 294 294 293 293 293 292 291
284 283 283 277 272 275 273 276 286 285 285 285 284 286 286 288 288 290 293 294 295 295 296 295 294 293 293 295 298 299 299 299 300 299 300 300 299 298 296 296 295 294 294 293 292 292 292 291 290
Wind_Speed
4 5 2 4 4 6 3 6 2 4 2 2 6 3 6 3 5 5 3 1 9 13 12 13 15 16 15 15 15 15 16 16 17 16 17 17 16 15 14 13 13 13 14 13 12 12 11 11 11
4 3 4 3 6 3 6 4 5 7 4 9 6 2 3 1 2 1 3 5 8 12 11 13 15 16 16 15 14 14 16 16 16 16 16 17 17 16 14 12 11 12 13 14 12 12 10 10 10
4 3 4 5 4 4 5 4 6 7 7 6 2 3 2 4 3 1 2 9 10 9 9 11 16 16 16 16 14 13 14 13 14 15 15 16 15 15 14 12 10 11 12 13 12 11 9 9 10
3 4 4 5 4 6 6 8 6 10 8 4 1 4 3 1 4 2 6 10 9 7 7 12 13 14 15 16 15 13 13 12 12 12 14 14 14 14 12 10 9 10 13 12 11 10 8 9 10
4 3 2 3 2 6 6 6 7 11 4 5 2 2 1 2 5 6 8 7 9 6 6 9 13 14 15 14 14 13 12 12 11 12 12 13 13 13 11 9 9 9 10 12 10 9 7 10 9
4 3 2 2 3 6 7 6 3 4 3 4 4 4 3 2 2 4 7 7 6 8 8 7 10 12 13 13 13 12 12 12 12 11 11 12 12 12 12 10 10 10 9 9 9 8 8 10 8
6 4 3 2 3 7 5 3 5 5 8 4 4 3 4 3 4 5 5 6 7 7 6 6 6 9 12 12 12 12 12 12 12 12 12 12 12 12 12 12 10 10 9 8 8 7 10 10 8
6 5 3 3 3 7 4 5 3 6 6 3 2 2 4 3 8 6 6 7 7 8 6 7 5 6 7 8 12 12 11 11 11 12 12 11 11 11 12 12 12 11 10 8 8 9 11 9 8
3 4 3 4 5 6 5 7 1 3 1 4 3 2 2 8 10 8 6 6 6 7 9 9 10 6 5 5 7 8 9 9 10 10 10 8 4 5 7 8 11 11 10 9 9 9 9 9 11
5 4 9 8 5 6 3 2 8 6 7 3 4 3 5 11 10 9 9 9 9 12 12 11 11 8 6 5 6 6 6 4 5 5 5 4 4 4 4 5 8 10 9 9 9 9 10 7 4
4 6 6 4 5 4 4 4 1 2 5 6 8 4 8 12 11 11 12 10 12 10 9 10 11 8 9 7 5 3 3 4 4 7 5 5 4 3 2 2 3 2 5 2 5 6 4 5 4
3 6 5 4 3 0 5 3 5 6 8 7 9 7 9 13 15 16 16 13 11 10 12 12 12 9 8 5 6 6 6 5 4 5 6 4 3 4 4 2 3 3 2 2 1 3 6 6 5
5 4 4 5 5 7 3 7 8 7 12 7 4 8 13 12 13 14 11 10 12 15 14 14 13 10 9 8 5 4 4 5 4 4 4 5 4 4 4 4 3 3 3 3 3 2 3 5 6
1 3 7 6 7 6 7 6 7 7 7 4 6 10 12 16 19 12 14 17 17 14 19 17 16 11 9 9 9 7 6 5 5 4 5 6 5 4 4 4 4 4 4 4 4 4 4 4 5
4 6 6 6 4 5 8 1 6 5 4 7 9 10 9 14 10 17 20 19 19 17 14 18 13 15 12 11 8 6 6 7 7 6 7 7 7 6 6 4 4 4 4 5 4 5 5 5 5
5 2 4 4 3 3 4 8 6 1 6 10 7 6 9 10 14 13 11 12 7 7 13 14 15 16 14 11 7 5 5 7 8 8 8 10 8 7 6 5 4 5 4 4 5 5 5 4 5
4 5 4 5 3 2 5 7 5 10 5 10 9 7 6 8 13 13 7 8 8 8 8 7 7 12 12 8 6 7 8 7 7 7 8 12 12 10 8 7 5 6 5 5 6 3 6 5 5
5 5 5 4 3 7 8 10 8 10 6 9 7 8 9 9 9 9 12 12 4 3 5 7 7 9 9 7 5 4 4 8 7 9 9 10 9 12 10 7 7 7 5 5 4 6 4 8 9
3 3 8 5 3 3 8 8 12 11 6 7 8 8 8 8 7 10 12 12 11 10 6 5 7 9 9 8 7 6 8 5 5 6 9 11 11 13 12 9 9 9 11 11 10 5 11 4 8
5 4 9 10 4 4 7 8 11 9 5 5 6 8 8 7 11 13 14 13 11 7 6 7 7 8 10 10 8 6 5 5 5 5 7 12 13 13 12 10 9 12 9 11 12 11 6 4 9
6 8 8 9 8 4 5 7 5 5 7 7 9 5 7 6 6 7 9 8 8 10 11 9 7 11 12 14 8 3 3 2 3 4 5 7 9 10 12 12 11 10 9 10 13 14 16 9 8
12 8 11 7 1 5 2 8 4 5 5 6 7 7 6 5 3 3 5 7 6 7 8 9 10 11 8 10 8 10 9 10 7 7 5 6 9 10 11 11 12 12 9 10 11 10 10 10 13
7 7 9 7 5 1 2 4 6 4 4 2 4 3 3 3 4 6 6 3 3 6 6 7 8 7 10 5 10 9 10 9 1 2 7 8 8 9 10 10 11 12 11 12 14 10 9 9 13
3 5 5 4 4 6 10 9 6 7 6 5 2 2 3 5 7 7 7 7 7 6 7 7 8 7 7 4 5 5 10 8 4 6 7 7 6 6 8 9 9 9 9 9 10 12 13 7 9
5 5 1 2 1 7 2 9 4 2 4 6 6 4 3 5 6 7 8 8 8 9 9 7 7 6 8 7 3 5 5 4 6 7 7 7 6 5 5 5 4 3 4 4 5 4 0 8 8
8 9 7 7 5 3 4 8 5 3 4 3 2 3 4 5 4 6 7 6 6 7 6 6 6 7 6 6 8 7 4 5 5 6 4 4 3 4 6 7 6 5 5 9 5 6 2 3 4
8 11 7 4 1 1 6 3 4 4 2 1 5 6 7 8 9 10 11 10 9 8 7 5 7 7 8 8 8 9 7 6 6 6 6 5 8 8 9 6 6 9 11 3 9 7 10 9 6
6 6 5 2 7 10 5 6 5 8 6 1 3 5 7 8 9 9 9 10 10 8 8 6 5 6 4 5 5 5 8 7 5 8 11 11 9 10 10 11 12 10 12 10 9 7 6 9 7
2 3 3 5 3 6 1 8 3 10 8 4 6 7 9 9 7 8 8 8 9 8 8 7 7 5 5 3 2 4 5 6 4 5 5 7 9 10 11 12 13 14 12 10 12 9 8 10 9
2 3 4 6 5 0 3 8 6 11 7 6 7 7 7 7 9 10 11 10 10 11 11 9 8 6 3 2 3 4 5 5 5 1 3 7 9 9 13 13 13 12 12 12 10 10 7 9 10
Wind_Direction
113 114 82 47 53 64 271 265 266 263 252 172 271 179 199 151 171 211 342 114 122 135 142 138 140 137 134 131 130 131 133 134 134 132 130 130 128 127 129 133 135 132 129 123 116 108 105 100 93
130 108 48 81 86 55 268 252 243 236 261 303 229 329 16 279 66 21 106 120 132 134 138 138 144 140 137 136 135 136 136 138 138 139 138 136 136 136 137 135 135 136 134 127 119 113 110 99 90
122 50 84 88 99 185 240 223 262 272 249 234 191 120 121 322 23 150 357 122 128 137 141 147 147 145 142 138 140 141 137 141 141 142 139 137 136 135 135 137 141 145 149 128 126 120 116 101 90
100 14 38 99 201 254 231 278 278 308 335 117 172 70 63 50 328 21 121 123 124 131 137 146 143 145 143 143 141 141 140 142 143 143 139 137 137 135 131 133 130 133 128 130 126 122 118 97 92
35 55 34 96 227 262 254 264 297 307 288 287 132 176 286 40 53 87 110 119 130 120 121 145 146 147 149 149 144 147 146 150 151 147 143 142 139 134 129 127 124 121 129 129 127 125 113 92 95
49 94 22 292 238 267 284 250 269 310 282 278 75 119 274 309 71 120 114 116 124 135 137 146 148 151 150 151 150 155 157 161 158 152 147 145 141 137 133 128 121 115 115 141 130 126 106 93 103
121 97 215 233 262 293 257 319 348 332 315 11 133 112 284 281 134 122 107 110 118 125 137 145 163 167 159 158 160 164 169 169 164 158 154 146 144 142 139 135 135 131 133 147 134 122 100 108 100
108 99 161 240 217 270 261 333 268 354 310 170 133 215 255 240 129 101 102 126 143 163 152 159 165 173 175 172 169 173 174 171 169 164 157 150 152 149 145 143 145 146 145 152 139 120 112 112 109
123 85 197 219 189 250 301 357 345 258 315 345 313 210 310 128 126 141 147 158 177 189 185 180 179 175 176 168 175 170 173 164 158 155 153 144 131 146 144 152 149 150 148 147 135 120 113 113 113
113 153 214 206 201 255 302 356 305 347 344 245 277 110 116 137 149 177 182 188 191 198 201 199 195 179 164 176 169 164 162 155 147 138 144 131 137 149 138 149 148 147 146 140 138 128 121 112 103
178 207 211 247 232 299 281 311 293 308 328 263 274 169 159 163 174 193 203 204 203 200 203 207 199 187 180 176 166 156 150 152 155 152 152 143 127 123 114 118 108 95 126 127 127 109 118 129 126
298 245 203 235 144 319 279 275 291 195 237 238 280 158 174 189 197 197 202 202 201 209 213 207 201 191 187 177 181 171 167 166 175 165 154 148 141 148 148 145 139 133 128 135 121 120 131 127 112
216 257 248 259 285 248 275 247 244 253 255 273 189 163 183 204 218 218 217 212 199 205 204 209 206 195 187 178 176 174 182 162 166 155 156 147 155 169 155 154 148 148 140 143 111 60 96 116 112
237 268 277 279 262 228 223 250 131 267 276 290 214 224 202 203 212 206 213 214 217 215 217 210 209 199 190 196 183 177 167 146 152 161 168 168 159 167 177 166 165 162 164 145 127 116 97 83 91
299 317 321 241 242 231 169 180 205 264 300 283 269 251 230 216 203 207 211 212 210 213 208 212 205 200 198 198 189 186 183 161 174 178 175 174 171 171 170 169 165 171 158 136 117 105 99 89 76
339 359 1 318 348 308 100 271 275 36 351 316 316 290 266 241 223 236 237 235 241 241 231 218 207 203 197 198 189 194 194 181 188 178 176 181 182 170 165 163 175 161 154 143 131 122 94 91 92
357 264 254 322 22 11 38 285 290 320 328 301 313 6 346 6 21 358 283 233 207 201 198 203 229 236 226 218 201 193 179 199 200 200 199 188 178 173 170 172 173 161 153 151 145 122 125 119 106
211 243 263 202 318 12 327 284 292 286 292 280 348 29 41 49 22 1 22 26 324 239 207 183 188 204 208 205 196 212 213 209 198 198 200 185 191 177 174 179 168 160 151 150 144 141 133 143 136
180 218 261 253 206 281 252 252 277 280 268 357 46 45 39 36 351 25 29 27 26 30 7 240 211 196 195 198 207 216 221 224 232 219 196 188 190 187 182 184 174 171 172 171 160 131 137 123 137
217 246 269 297 211 176 278 255 260 262 67 94 81 50 36 24 17 15 16 18 25 16 4 353 295 214 209 215 211 204 201 216 214 212 213 197 193 189 190 186 182 178 170 167 166 156 143 118 173
229 234 263 246 319 228 251 284 232 66 107 65 46 53 43 26 25 11 10 2 357 6 352 341 308 274 226 217 209 122 96 115 152 206 219 229 217 198 189 180 174 181 182 181 180 173 169 156 187
244 195 238 252 229 269 15 287 259 158 112 65 34 24 16 11 5 24 8 3 358 347 331 336 348 341 234 216 220 208 213 220 208 202 200 215 211 205 198 193 183 181 182 182 188 187 183 161 176
244 175 202 213 192 121 225 279 253 136 144 83 53 5 327 333 360 354 348 347 332 337 338 339 342 25 15 270 212 196 218 235 241 178 177 208 210 211 199 198 192 189 192 187 178 167 178 184 171
156 109 66 54 101 255 203 184 226 191 174 131 165 254 293 342 354 351 344 344 346 347 1 355 356 350 358 52 357 290 235 223 188 188 194 201 199 216 209 196 202 203 200 194 187 180 168 158 165
147 109 292 294 217 242 340 200 267 149 99 135 176 219 296 318 326 325 330 335 330 336 339 340 350 348 342 327 263 200 241 218 217 207 209 197 191 192 194 170 156 145 121 82 76 45 46 135 153
187 181 172 206 206 269 328 233 279 131 120 95 14 328 327 323 289 291 289 288 277 288 295 317 331 335 342 336 320 289 229 185 199 198 191 193 165 112 120 106 101 87 79 109 73 92 29 71 105
178 204 192 109 132 279 222 289 331 133 144 347 352 7 345 331 328 322 314 314 312 306 300 324 331 327 335 340 336 325 285 199 194 164 144 136 133 135 125 121 117 121 111 129 126 141 142 138 122
201 138 139 98 231 236 239 256 224 187 185 133 341 313 302 293 293 296 297 288 290 286 282 290 287 292 299 325 320 313 314 287 217 175 171 174 172 169 160 150 138 139 137 140 117 125 138 127 133
142 142 77 114 139 181 263 253 281 150 135 178 247 254 256 264 267 265 264 267 262 262 269 268 260 257 273 277 282 313 308 303 256 219 198 175 159 159 155 154 144 147 140 140 139 148 142 131 131
56 186 165 155 235 16 151 257 135 127 165 207 256 277 288 278 286 289 287 279 283 282 271 243 239 233 246 293 339 342 348 347 334 326 193 173 174 175 157 153 146 137 138 131 131 132 136 140 140